FLOCK 4S-20 (47540 NORAD) Tracking and Keplerian Element Data

This shows tracking and keplerian element data for the satellite.

Feedback or suggestion? Click here.




ElementValue
Catalog47540
NameFLOCK 4S-20
Epoch Orbit1106
Epoch Day101.93277255
Epoch Year2021
RAAN164.3733
Inclination97.5014
Eccentricity0.0010272
Argument of Perigee335.6679
Mean Anonmoly24.4065
Mean Motion15.12754632
Decay Rate1.468E-05
L11 47540U 21006EA 21101.93277255 .00001468 00000-0 87350-4 0 9990
L22 47540 97.5014 164.3733 0010272 335.6679 24.4065 15.12754632 11061

Live tracking and technical data element details for FLOCK 4S-20 (NORAD 47540). FLOCK 4S-20 can be tracked NOW for your location showing map with azimuth and elevation plus other details from your city location.

Track the satellite on the map from your city or location and see movement details for azimuth, elevation, latitude, longitude, range, height, and movement on the map or in text.







IsCatalogInMostPopularTable: catalog: 47540, numindb: 18
Update: records affected: 1



GetName: 47540 FLOCK 4S-20

Hit Count: updated at: Tue, 13 Apr 2021 03:32:40 GMT